{"data":{"norad_id":65199,"intl_designator":"2025-176B","name":"STARLINK-34821","alt_names":[],"object_type":"PAYLOAD","status":"ACTIVE","operator":null,"country":"US","launch_date":"2025-08-14","launch_site_code":"AFETR","launch_vehicle":null,"mission":null,"orbit_class":"UNKNOWN","rcs_meters":null,"size_class":null,"mass_kg":null,"dimensions":null,"purposes":["comms"],"wikipedia_slug":null,"has_3d_model":false,"image_url":null,"decayed_at":null,"tle_current":{"epoch":"2026-09-20T12:40:11.873280Z","epoch_age_seconds":118498,"freshness":"FRESH","line1":"1 65199U 25176B   26263.52791520  .00015893  00000+0  48047-3 0  9992","line2":"2 65199  53.1597 323.2884 0001218  79.6078 280.5062 15.34402023 62949","mean_motion":15.34402023,"eccentricity":0.0001218,"inclination_deg":53.1597,"raan_deg":323.2884,"arg_perigee_deg":79.6078,"mean_anomaly_deg":280.5062,"bstar":0.00048047,"rev_number":6294,"period_min":93.847634349737,"perigee_km":461.86401382248,"apogee_km":463.53044104028,"semimajor_km":6840.8342274314,"source":"CELESTRAK","updated_at":"2026-09-21T09:00:35.533053Z"}}}